WWA152 MKJP-MMUN

Flight info

Callsign WWA152
Flight time 1h 34m
Altitude 36000
Route LEXUV5 KEMBO UG633 GCM UR640 MAMBI UL577 ILUBA ILUBA1E
Aircraft A319/M-SDE3FGHIRWY/LB1

Departure

Time 2026-05-09 12:50
Airport Norman Manley International Airport (MKJP)

Arrival

Time 2026-05-09 14:25
Airport Cancún International Airport (MMUN)
Time Latitude Longitude Altitude Speed Heading
2026-05-09 12:22 17.93659 -76.77942 32 ft 0 kts 290°
2026-05-09 12:39 17.93657 -76.77936 33 ft 2 kts 291°
2026-05-09 12:39 17.93651 -76.77922 33 ft 2 kts 291°
2026-05-09 12:39 17.93646 -76.77908 33 ft 2 kts 291°
2026-05-09 12:39 17.93640 -76.77892 33 ft 2 kts 291°
2026-05-09 12:40 17.93636 -76.77879 33 ft 0 kts 291°
2026-05-09 12:40 17.93634 -76.77876 33 ft 0 kts 252°
2026-05-09 12:40 17.93636 -76.77872 33 ft 0 kts 203°
2026-05-09 12:40 17.93649 -76.77869 33 ft 2 kts 202°
2026-05-09 12:41 17.93661 -76.77863 33 ft 0 kts 201°
2026-05-09 12:41 17.93662 -76.77863 33 ft 0 kts 200°
2026-05-09 12:44 17.93653 -76.77866 33 ft 2 kts 201°
2026-05-09 12:45 17.93623 -76.77879 33 ft 6 kts 202°
2026-05-09 12:45 17.93573 -76.77900 33 ft 9 kts 202°
2026-05-09 12:45 17.93502 -76.77930 32 ft 12 kts 202°
2026-05-09 12:45 17.93443 -76.77992 32 ft 14 kts 277°
2026-05-09 12:46 17.93478 -76.78099 32 ft 16 kts 292°
2026-05-09 12:46 17.93524 -76.78217 31 ft 18 kts 291°
2026-05-09 12:46 17.93574 -76.78347 31 ft 19 kts 291°
2026-05-09 12:46 17.93627 -76.78484 31 ft 20 kts 292°
2026-05-09 12:47 17.93687 -76.78634 32 ft 21 kts 291°
2026-05-09 12:47 17.93748 -76.78794 32 ft 22 kts 291°
2026-05-09 12:47 17.93811 -76.78958 33 ft 22 kts 292°
2026-05-09 12:47 17.93875 -76.79126 34 ft 23 kts 292°
2026-05-09 12:48 17.93943 -76.79299 34 ft 23 kts 291°
2026-05-09 12:48 17.94013 -76.79479 34 ft 24 kts 292°
2026-05-09 12:48 17.94083 -76.79661 33 ft 25 kts 288°
2026-05-09 12:48 17.94112 -76.79847 33 ft 19 kts 270°
2026-05-09 12:49 17.94010 -76.79902 33 ft 18 kts 122°
2026-05-09 12:49 17.93963 -76.79778 33 ft 17 kts 111°
2026-05-09 12:49 17.93827 -76.79426 34 ft 85 kts 112°
2026-05-09 12:49 17.93484 -76.78535 32 ft 151 kts 111°
2026-05-09 12:50 17.93004 -76.77264 314 ft 178 kts 111°
2026-05-09 12:50 17.92513 -76.76042 1101 ft 172 kts 111°
2026-05-09 12:50 17.91769 -76.75034 1878 ft 172 kts 148°
2026-05-09 12:50 17.90499 -76.74814 2413 ft 191 kts 189°
2026-05-09 12:51 17.89204 -76.75347 2904 ft 208 kts 200°
2026-05-09 12:51 17.87808 -76.75960 3343 ft 227 kts 198°
2026-05-09 12:51 17.86290 -76.76621 3924 ft 241 kts 199°
2026-05-09 12:51 17.84729 -76.77317 4683 ft 247 kts 199°
2026-05-09 12:52 17.83204 -76.78122 5454 ft 254 kts 216°
2026-05-09 12:52 17.82112 -76.79648 6274 ft 262 kts 249°
2026-05-09 12:52 17.81918 -76.81722 6892 ft 276 kts 283°
2026-05-09 12:52 17.82653 -76.83769 7421 ft 290 kts 296°
2026-05-09 12:53 17.83620 -76.85890 8001 ft 304 kts 297°
2026-05-09 12:53 17.84560 -76.88052 8788 ft 307 kts 294°
2026-05-09 12:53 17.85403 -76.90278 9594 ft 309 kts 291°
2026-05-09 12:53 17.86335 -76.92549 10331 ft 311 kts 307°
2026-05-09 12:54 17.87982 -76.94363 10777 ft 323 kts 319°
2026-05-09 12:54 17.89803 -76.96174 11146 ft 339 kts 318°
2026-05-09 12:54 17.91633 -76.98113 11455 ft 357 kts 315°
2026-05-09 12:54 17.93535 -77.00332 11797 ft 373 kts 313°
2026-05-09 12:55 17.95412 -77.02638 12085 ft 388 kts 313°
2026-05-09 12:55 17.97337 -77.04954 12535 ft 396 kts 313°
2026-05-09 12:55 17.99236 -77.07309 13152 ft 398 kts 312°
2026-05-09 12:55 18.01168 -77.09722 13721 ft 401 kts 312°
2026-05-09 12:56 18.03075 -77.12099 14277 ft 404 kts 313°
2026-05-09 12:56 18.05027 -77.14523 14846 ft 407 kts 313°
2026-05-09 12:56 18.06991 -77.16959 15405 ft 409 kts 313°
2026-05-09 12:56 18.08980 -77.19427 15946 ft 411 kts 313°
2026-05-09 12:57 18.10987 -77.21918 16460 ft 414 kts 313°
2026-05-09 12:57 18.12982 -77.24396 16948 ft 417 kts 313°
2026-05-09 12:57 18.14971 -77.26867 17418 ft 420 kts 313°
2026-05-09 12:57 18.16997 -77.29383 17912 ft 421 kts 313°
2026-05-09 12:58 18.19016 -77.31892 18404 ft 423 kts 313°
2026-05-09 12:58 18.20970 -77.34498 18872 ft 425 kts 308°
2026-05-09 12:58 18.22727 -77.37264 19315 ft 428 kts 304°
2026-05-09 12:58 18.24291 -77.40205 19754 ft 431 kts 300°
2026-05-09 12:59 18.25769 -77.43178 20181 ft 432 kts 300°
2026-05-09 12:59 18.27251 -77.46190 20601 ft 434 kts 300°
2026-05-09 12:59 18.28758 -77.49249 21016 ft 435 kts 300°
2026-05-09 12:59 18.30261 -77.52290 21421 ft 436 kts 300°
2026-05-09 13:00 18.31774 -77.55345 21825 ft 437 kts 300°
2026-05-09 13:00 18.33278 -77.58379 22204 ft 438 kts 300°
2026-05-09 13:00 18.34812 -77.61473 22585 ft 439 kts 300°
2026-05-09 13:00 18.36341 -77.64558 22952 ft 441 kts 300°
2026-05-09 13:01 18.37884 -77.67673 23297 ft 444 kts 300°
2026-05-09 13:01 18.39425 -77.70785 23636 ft 446 kts 300°
2026-05-09 13:01 18.40986 -77.73941 23983 ft 448 kts 300°
2026-05-09 13:01 18.42531 -77.77064 24318 ft 450 kts 300°
2026-05-09 13:02 18.44110 -77.80259 24658 ft 453 kts 300°
2026-05-09 13:02 18.45666 -77.83414 24999 ft 455 kts 300°
2026-05-09 13:02 18.47237 -77.86596 25335 ft 457 kts 300°
2026-05-09 13:02 18.48748 -77.89792 25656 ft 460 kts 296°
2026-05-09 13:03 18.50060 -77.93154 25986 ft 463 kts 292°
2026-05-09 13:03 18.51092 -77.96521 26300 ft 467 kts 288°
2026-05-09 13:03 18.51951 -77.99984 26602 ft 469 kts 286°
2026-05-09 13:03 18.52746 -78.03342 26894 ft 471 kts 286°
2026-05-09 13:04 18.53533 -78.06696 27177 ft 473 kts 286°
2026-05-09 13:04 18.54324 -78.10059 27467 ft 474 kts 286°
2026-05-09 13:04 18.55122 -78.13441 27858 ft 473 kts 286°
2026-05-09 13:04 18.55904 -78.16748 28286 ft 471 kts 286°
2026-05-09 13:05 18.56699 -78.20102 28710 ft 469 kts 286°
2026-05-09 13:05 18.57488 -78.23433 29101 ft 468 kts 286°
2026-05-09 13:05 18.58270 -78.26728 29464 ft 468 kts 286°
2026-05-09 13:05 18.59059 -78.30058 29823 ft 468 kts 286°
2026-05-09 13:06 18.59848 -78.33388 30195 ft 467 kts 286°
2026-05-09 13:06 18.60627 -78.36683 30569 ft 466 kts 285°
2026-05-09 13:06 18.61412 -78.40003 30940 ft 466 kts 285°
2026-05-09 13:06 18.62186 -78.43279 31306 ft 465 kts 285°
2026-05-09 13:07 18.62969 -78.46599 31676 ft 464 kts 285°
2026-05-09 13:07 18.63746 -78.49898 32044 ft 463 kts 285°
2026-05-09 13:07 18.64520 -78.53183 32402 ft 462 kts 285°
2026-05-09 13:07 18.65288 -78.56446 32757 ft 461 kts 285°
2026-05-09 13:08 18.66062 -78.59737 33134 ft 460 kts 285°
2026-05-09 13:08 18.66823 -78.62978 33479 ft 459 kts 285°
2026-05-09 13:08 18.67591 -78.66254 33827 ft 459 kts 285°
2026-05-09 13:08 18.68355 -78.69505 34162 ft 458 kts 285°
2026-05-09 13:09 18.69120 -78.72765 34463 ft 458 kts 285°
2026-05-09 13:09 18.69874 -78.75987 34718 ft 458 kts 285°
2026-05-09 13:09 18.70639 -78.79252 34953 ft 459 kts 285°
2026-05-09 13:09 18.71407 -78.82536 35181 ft 459 kts 285°
2026-05-09 13:10 18.72164 -78.85774 35393 ft 460 kts 285°
2026-05-09 13:10 18.72928 -78.89044 35589 ft 460 kts 285°
2026-05-09 13:10 18.73689 -78.92310 35767 ft 461 kts 285°
2026-05-09 13:10 18.74455 -78.95600 35929 ft 462 kts 285°
2026-05-09 13:11 18.75218 -78.98878 35980 ft 463 kts 285°
2026-05-09 13:11 18.76753 -79.05482 35992 ft 463 kts 285°
2026-05-09 13:12 18.78275 -79.12043 35999 ft 464 kts 285°
2026-05-09 13:12 18.79804 -79.18645 36001 ft 463 kts 285°
2026-05-09 13:13 18.81329 -79.25240 36001 ft 463 kts 285°
2026-05-09 13:13 18.82849 -79.31833 36000 ft 464 kts 285°
2026-05-09 13:14 18.84412 -79.38618 36001 ft 464 kts 285°
2026-05-09 13:16 18.90568 -79.65461 36006 ft 463 kts 285°
2026-05-09 13:16 18.92076 -79.72064 36005 ft 463 kts 285°
2026-05-09 13:17 18.93661 -79.79016 36004 ft 463 kts 285°
2026-05-09 13:17 18.95175 -79.85671 36004 ft 463 kts 285°
2026-05-09 13:18 18.96678 -79.92286 36003 ft 462 kts 285°
2026-05-09 13:18 18.98173 -79.98884 36005 ft 463 kts 285°
2026-05-09 13:19 18.99723 -80.05730 36001 ft 462 kts 285°
2026-05-09 13:19 19.01204 -80.12282 36002 ft 462 kts 285°
2026-05-09 13:20 19.02753 -80.19153 36003 ft 461 kts 285°
2026-05-09 13:20 19.04274 -80.25905 36001 ft 461 kts 285°
2026-05-09 13:21 19.05763 -80.32533 36003 ft 461 kts 285°
2026-05-09 13:21 19.07295 -80.39361 36002 ft 461 kts 285°
2026-05-09 13:22 19.08776 -80.45976 36002 ft 460 kts 285°
2026-05-09 13:22 19.10256 -80.52593 36005 ft 459 kts 285°
2026-05-09 13:23 19.13990 -80.69350 36002 ft 459 kts 284°
2026-05-09 13:24 19.15537 -80.76317 36000 ft 458 kts 284°
2026-05-09 13:24 19.17106 -80.83400 36002 ft 458 kts 284°
2026-05-09 13:25 19.18673 -80.90480 36003 ft 457 kts 284°
2026-05-09 13:26 19.21016 -81.01086 36002 ft 457 kts 284°
2026-05-09 13:26 19.22576 -81.08174 35999 ft 457 kts 284°
2026-05-09 13:27 19.24128 -81.15237 36003 ft 457 kts 284°
2026-05-09 13:27 19.25667 -81.22251 36002 ft 457 kts 284°
2026-05-09 13:28 19.27196 -81.29236 35999 ft 457 kts 284°
2026-05-09 13:28 19.28735 -81.36283 35999 ft 457 kts 284°
2026-05-09 13:29 19.30366 -81.43274 36000 ft 457 kts 286°
2026-05-09 13:29 19.32071 -81.50319 35994 ft 457 kts 285°
2026-05-09 13:30 19.33754 -81.57318 35993 ft 457 kts 285°
2026-05-09 13:30 19.35425 -81.64313 35992 ft 456 kts 285°
2026-05-09 13:31 19.37093 -81.71312 35991 ft 456 kts 285°
2026-05-09 13:31 19.38743 -81.78251 35995 ft 456 kts 285°
2026-05-09 13:32 19.40403 -81.85242 36000 ft 456 kts 285°
2026-05-09 13:32 19.42904 -81.95801 36001 ft 456 kts 285°
2026-05-09 13:33 19.44568 -82.02840 36003 ft 456 kts 285°
2026-05-09 13:33 19.46229 -82.09903 36004 ft 456 kts 285°
2026-05-09 13:34 19.47878 -82.16952 36004 ft 456 kts 285°
2026-05-09 13:34 19.49518 -82.23971 36004 ft 455 kts 285°
2026-05-09 13:35 19.51160 -82.31013 36003 ft 455 kts 285°
2026-05-09 13:35 19.52795 -82.38036 36000 ft 455 kts 285°
2026-05-09 13:36 19.54420 -82.45027 35995 ft 454 kts 285°
2026-05-09 13:36 19.56041 -82.52016 35989 ft 454 kts 285°
2026-05-09 13:37 19.57676 -82.59077 35989 ft 454 kts 285°
2026-05-09 13:37 19.59287 -82.66054 35988 ft 454 kts 284°
2026-05-09 13:38 19.60885 -82.72986 35988 ft 454 kts 284°
2026-05-09 13:38 19.62486 -82.79941 35988 ft 453 kts 284°
2026-05-09 13:39 19.64099 -82.86964 35986 ft 453 kts 284°
2026-05-09 13:39 19.65706 -82.93968 35989 ft 453 kts 284°
2026-05-09 13:40 19.67304 -83.00948 35996 ft 452 kts 284°
2026-05-09 13:40 19.68914 -83.07999 35997 ft 452 kts 284°
2026-05-09 13:41 19.70512 -83.15006 35995 ft 453 kts 284°
2026-05-09 13:41 19.72087 -83.21929 35994 ft 451 kts 284°
2026-05-09 13:42 19.73549 -83.28359 35992 ft 451 kts 284°
2026-05-09 13:42 19.75067 -83.35050 35996 ft 451 kts 284°
2026-05-09 13:43 19.76528 -83.41505 35995 ft 451 kts 284°
2026-05-09 13:43 19.77984 -83.47948 35994 ft 451 kts 284°
2026-05-09 13:44 19.79439 -83.54397 35991 ft 451 kts 284°
2026-05-09 13:44 19.80902 -83.60897 35991 ft 451 kts 284°
2026-05-09 13:45 19.82363 -83.67395 35989 ft 451 kts 284°
2026-05-09 13:45 19.83811 -83.73850 35987 ft 450 kts 284°
2026-05-09 13:46 19.85286 -83.80434 35984 ft 450 kts 284°
2026-05-09 13:46 19.86790 -83.87161 35983 ft 450 kts 284°
2026-05-09 13:47 19.88327 -83.94051 35984 ft 450 kts 284°
2026-05-09 13:47 19.89926 -84.01229 35983 ft 449 kts 283°
2026-05-09 13:48 19.91520 -84.08403 35983 ft 449 kts 284°
2026-05-09 13:48 19.93110 -84.15574 35983 ft 448 kts 284°
2026-05-09 13:49 19.94694 -84.22723 35983 ft 448 kts 283°
2026-05-09 13:49 19.96274 -84.29874 35983 ft 449 kts 283°
2026-05-09 13:50 19.97856 -84.37053 35983 ft 449 kts 283°
2026-05-09 13:50 19.99425 -84.44189 35982 ft 449 kts 283°
2026-05-09 13:51 20.00998 -84.51350 35977 ft 449 kts 283°
2026-05-09 13:51 20.02547 -84.58420 35974 ft 449 kts 283°
2026-05-09 13:52 20.03958 -84.64868 35970 ft 448 kts 283°
2026-05-09 13:52 20.05361 -84.71294 35965 ft 446 kts 283°
2026-05-09 13:53 20.06060 -84.74503 35681 ft 444 kts 283°
2026-05-09 13:53 20.06759 -84.77705 34873 ft 446 kts 283°
2026-05-09 13:53 20.07461 -84.80929 33755 ft 453 kts 283°
2026-05-09 13:53 20.08173 -84.84196 32592 ft 461 kts 283°
2026-05-09 13:54 20.08893 -84.87522 31554 ft 466 kts 283°
2026-05-09 13:54 20.09616 -84.90871 30593 ft 468 kts 283°
2026-05-09 13:54 20.10346 -84.94241 29650 ft 470 kts 283°
2026-05-09 13:54 20.11108 -84.97767 28641 ft 471 kts 283°
2026-05-09 13:55 20.11900 -85.01418 27555 ft 472 kts 283°
2026-05-09 13:55 20.12703 -85.05119 26394 ft 474 kts 283°
2026-05-09 13:55 20.13496 -85.08784 25525 ft 469 kts 283°
2026-05-09 13:55 20.14278 -85.12404 24721 ft 463 kts 283°
2026-05-09 13:56 20.15047 -85.15976 24032 ft 456 kts 282°
2026-05-09 13:56 20.15811 -85.19526 23392 ft 449 kts 282°
2026-05-09 13:56 20.16558 -85.23001 22807 ft 441 kts 282°
2026-05-09 13:56 20.17249 -85.26218 22561 ft 430 kts 282°
2026-05-09 13:57 20.17906 -85.29285 22321 ft 423 kts 282°
2026-05-09 13:57 20.18558 -85.32292 22066 ft 416 kts 283°
2026-05-09 13:57 20.19362 -85.35308 21818 ft 403 kts 287°
2026-05-09 13:57 20.20268 -85.38104 21841 ft 395 kts 289°
2026-05-09 13:58 20.21181 -85.40831 21866 ft 395 kts 289°
2026-05-09 13:58 20.22116 -85.43608 21893 ft 394 kts 289°
2026-05-09 13:58 20.23027 -85.46316 21923 ft 394 kts 288°
2026-05-09 13:58 20.23950 -85.49072 21944 ft 395 kts 288°
2026-05-09 13:59 20.24877 -85.51838 21956 ft 395 kts 288°
2026-05-09 13:59 20.25801 -85.54601 21963 ft 395 kts 288°
2026-05-09 13:59 20.26724 -85.57368 21965 ft 396 kts 288°
2026-05-09 13:59 20.27644 -85.60127 21969 ft 395 kts 288°
2026-05-09 14:00 20.28551 -85.62849 21967 ft 395 kts 289°
2026-05-09 14:00 20.28857 -85.63766 21967 ft 395 kts 288°
2026-05-09 14:00 20.30447 -85.68541 21964 ft 394 kts 288°
2026-05-09 14:00 20.31383 -85.71349 21966 ft 394 kts 288°
2026-05-09 14:01 20.32306 -85.74121 21965 ft 394 kts 288°
2026-05-09 14:01 20.33233 -85.76906 21962 ft 394 kts 288°
2026-05-09 14:01 20.34165 -85.79713 21961 ft 394 kts 288°
2026-05-09 14:01 20.35105 -85.82545 21961 ft 393 kts 288°
2026-05-09 14:02 20.36046 -85.85381 21959 ft 394 kts 288°
2026-05-09 14:02 20.37026 -85.88332 21958 ft 394 kts 288°
2026-05-09 14:02 20.38017 -85.91322 21957 ft 393 kts 288°
2026-05-09 14:02 20.38989 -85.94256 21957 ft 394 kts 288°
2026-05-09 14:03 20.39933 -85.97111 21960 ft 393 kts 288°
2026-05-09 14:03 20.40903 -86.00043 21939 ft 378 kts 288°
2026-05-09 14:03 20.41797 -86.02742 21944 ft 361 kts 288°
2026-05-09 14:03 20.42644 -86.05306 21950 ft 353 kts 288°
2026-05-09 14:04 20.43505 -86.07920 21805 ft 354 kts 288°
2026-05-09 14:04 20.44391 -86.10607 21326 ft 353 kts 288°
2026-05-09 14:04 20.45261 -86.13249 20892 ft 351 kts 288°
2026-05-09 14:04 20.46134 -86.15900 20466 ft 348 kts 288°
2026-05-09 14:05 20.46990 -86.18500 20053 ft 346 kts 287°
2026-05-09 14:05 20.47841 -86.21089 19635 ft 344 kts 287°
2026-05-09 14:05 20.48693 -86.23684 19217 ft 342 kts 287°
2026-05-09 14:05 20.49534 -86.26246 18808 ft 340 kts 287°
2026-05-09 14:06 20.50383 -86.28832 18394 ft 338 kts 287°
2026-05-09 14:06 20.51220 -86.31385 17986 ft 336 kts 287°
2026-05-09 14:06 20.52051 -86.33918 17582 ft 335 kts 287°
2026-05-09 14:06 20.52875 -86.36433 17183 ft 334 kts 287°
2026-05-09 14:07 20.53699 -86.38955 16785 ft 333 kts 287°
2026-05-09 14:07 20.54517 -86.41460 16392 ft 332 kts 287°
2026-05-09 14:07 20.55345 -86.44000 15987 ft 330 kts 287°
2026-05-09 14:07 20.56158 -86.46489 15593 ft 329 kts 287°
2026-05-09 14:08 20.56971 -86.48980 15202 ft 328 kts 287°
2026-05-09 14:08 20.57775 -86.51446 14810 ft 326 kts 288°
2026-05-09 14:08 20.58584 -86.53926 14417 ft 325 kts 288°
2026-05-09 14:08 20.59384 -86.56378 14027 ft 323 kts 288°
2026-05-09 14:09 20.60179 -86.58820 13639 ft 321 kts 288°
2026-05-09 14:09 20.60952 -86.61195 13265 ft 319 kts 288°
2026-05-09 14:09 20.61767 -86.63549 12877 ft 317 kts 296°
2026-05-09 14:09 20.63315 -86.65456 12459 ft 316 kts 328°
2026-05-09 14:10 20.67840 -86.66910 11689 ft 311 kts 346°
2026-05-09 14:10 20.70111 -86.67510 11313 ft 309 kts 345°
2026-05-09 14:10 20.72387 -86.68139 10939 ft 306 kts 345°
2026-05-09 14:11 20.74595 -86.68765 10574 ft 304 kts 345°
2026-05-09 14:11 20.76781 -86.69392 10228 ft 301 kts 344°
2026-05-09 14:11 20.78934 -86.70012 10126 ft 287 kts 344°
2026-05-09 14:11 20.80925 -86.70586 10049 ft 275 kts 344°
2026-05-09 14:12 20.82769 -86.71442 9925 ft 262 kts 320°
2026-05-09 14:12 20.84035 -86.73002 9626 ft 258 kts 302°
2026-05-09 14:12 20.85089 -86.74740 9336 ft 256 kts 301°
2026-05-09 14:12 20.86146 -86.76499 9032 ft 255 kts 301°
2026-05-09 14:13 20.87211 -86.78243 8721 ft 255 kts 302°
2026-05-09 14:14 20.94730 -86.90271 6556 ft 254 kts 302°
2026-05-09 14:15 20.95827 -86.92022 6241 ft 255 kts 302°
2026-05-09 14:15 20.96923 -86.93774 5923 ft 255 kts 302°
2026-05-09 14:15 20.98010 -86.95514 5616 ft 255 kts 303°
2026-05-09 14:15 20.99086 -86.97233 5313 ft 255 kts 303°
2026-05-09 14:16 21.00192 -86.99002 5001 ft 255 kts 303°
2026-05-09 14:16 21.01254 -87.00700 4704 ft 255 kts 303°
2026-05-09 14:16 21.02345 -87.02443 4400 ft 255 kts 303°
2026-05-09 14:16 21.03409 -87.04144 4105 ft 254 kts 303°
2026-05-09 14:17 21.04481 -87.05858 3806 ft 254 kts 303°
2026-05-09 14:17 21.05551 -87.07571 3506 ft 254 kts 303°
2026-05-09 14:17 21.06629 -87.09296 3263 ft 250 kts 303°
2026-05-09 14:17 21.07681 -87.10981 3065 ft 244 kts 303°
2026-05-09 14:18 21.08806 -87.12521 2986 ft 238 kts 324°
2026-05-09 14:18 21.10457 -87.13091 2974 ft 224 kts 12°
2026-05-09 14:18 21.11906 -87.12272 2992 ft 208 kts 60°
2026-05-09 14:18 21.12620 -87.10789 3021 ft 205 kts 66°
2026-05-09 14:19 21.13526 -87.09446 2997 ft 197 kts 52°
2026-05-09 14:19 21.14630 -87.08337 3004 ft 198 kts 45°
2026-05-09 14:19 21.15751 -87.07287 3001 ft 195 kts 59°
2026-05-09 14:19 21.16195 -87.05840 3006 ft 184 kts 97°
2026-05-09 14:20 21.15797 -87.04460 3020 ft 180 kts 122°
2026-05-09 14:20 21.15049 -87.03273 3073 ft 171 kts 127°
2026-05-09 14:20 21.14315 -87.02194 2959 ft 158 kts 126°
2026-05-09 14:21 21.13079 -87.00295 2567 ft 144 kts 125°
2026-05-09 14:21 21.12514 -86.99400 2373 ft 138 kts 124°
2026-05-09 14:21 21.11966 -86.98525 2209 ft 137 kts 124°
2026-05-09 14:21 21.11404 -86.97623 2042 ft 137 kts 124°
2026-05-09 14:22 21.10822 -86.96691 1854 ft 137 kts 124°
2026-05-09 14:22 21.10241 -86.95759 1673 ft 137 kts 124°
2026-05-09 14:22 21.09663 -86.94835 1472 ft 136 kts 124°
2026-05-09 14:22 21.09086 -86.93911 1271 ft 136 kts 124°
2026-05-09 14:23 21.08520 -86.93005 1082 ft 135 kts 124°
2026-05-09 14:23 21.07952 -86.92098 896 ft 135 kts 125°
2026-05-09 14:23 21.07377 -86.91185 713 ft 134 kts 124°
2026-05-09 14:23 21.06815 -86.90280 528 ft 134 kts 124°
2026-05-09 14:24 21.06256 -86.89381 347 ft 133 kts 125°
2026-05-09 14:24 21.05692 -86.88496 153 ft 131 kts 125°
2026-05-09 14:24 21.05149 -86.87640 47 ft 119 kts 125°
2026-05-09 14:24 21.04771 -86.87026 41 ft 62 kts 124°
2026-05-09 14:25 21.04562 -86.86694 41 ft 38 kts 122°
2026-05-09 14:25 21.04425 -86.86491 41 ft 27 kts 137°
2026-05-09 14:25 21.04267 -86.86378 42 ft 22 kts 154°
2026-05-09 14:25 21.04123 -86.86301 43 ft 15 kts 149°
2026-05-09 14:26 21.04055 -86.86227 44 ft 12 kts 152°
2026-05-09 14:26 21.03969 -86.86266 44 ft 13 kts 216°
2026-05-09 14:26 21.03871 -86.86337 42 ft 16 kts 212°
2026-05-09 14:26 21.03767 -86.86404 43 ft 16 kts 210°
2026-05-09 14:27 21.03658 -86.86479 42 ft 17 kts 215°
2026-05-09 14:27 21.03543 -86.86562 41 ft 18 kts 212°
2026-05-09 14:27 21.03420 -86.86656 39 ft 20 kts 214°
2026-05-09 14:27 21.03349 -86.86758 37 ft 13 kts 294°
2026-05-09 14:28 21.03410 -86.86852 36 ft 15 kts 303°
2026-05-09 14:28 21.03477 -86.86961 34 ft 17 kts 303°
2026-05-09 14:28 21.03552 -86.87082 32 ft 18 kts 303°
2026-05-09 14:28 21.03634 -86.87212 31 ft 20 kts 304°
2026-05-09 14:29 21.03721 -86.87354 29 ft 21 kts 303°
2026-05-09 14:29 21.03811 -86.87495 27 ft 15 kts 305°
2026-05-09 14:29 21.03815 -86.87619 27 ft 16 kts 270°
2026-05-09 14:29 21.03871 -86.87730 26 ft 16 kts 304°
2026-05-09 14:30 21.03945 -86.87827 27 ft 12 kts 338°
2026-05-09 14:30 21.04026 -86.87791 27 ft 12 kts 36°
2026-05-09 14:30 21.04106 -86.87734 29 ft 10 kts 33°
2026-05-09 14:30 21.04145 -86.87683 29 ft 5 kts 77°
2026-05-09 14:31 21.04116 -86.87655 29 ft 7 kts 171°
2026-05-09 14:31 21.04074 -86.87647 28 ft 0 kts 169°
2026-05-09 14:31 21.04071 -86.87646 28 ft 0 kts 168°